User: anonymous
Location: Prairie State College
(41.5244°N, 87.6382°W)
Time: 23:26:28
(UTC-05:00)
Language:

ARGOS Delta rocket - Orbit

View from above orbital plane
View from above orbital plane
View from above satellite
View from above satellite

Ground track
Ground track

The orbit data is extracted from the following two-line orbital elements,

1 25637U 99008D   14266.82037074  .00000447  00000-0  11867-3 0  5930
2 25637 096.4829 025.5239 0143423 212.6400 300.3652 14.45952763821445
Epoch (UTC): 23 September 2014 19:41:20
Eccentricity: 0.0143423
inclination: 96.4829°
perigee height: 637 km
apogee height: 841 km
right ascension of ascending node: 25.5239°
argument of perigee: 212.6400°
revolutions per day: 14.45952763
mean anomaly at epoch: 300.3652°
orbit number at epoch: 82144

The dashed part of the orbit path shows where the satellite is in the earth's shadow,  

DLR